Time,TemperatureF,DewpointF,PressureIn,WindDirection,WindDirectionDegrees,WindSpeedMPH,WindSpeedGustMPH,Humidity,HourlyPrecipIn,Conditions,Clouds,dailyrainin,SoftwareType,DateUTC
2013-02-18 00:07:00,35.6,27.0,29.66,SE,134,5.0,11.0,72,0.00,,,0.00,weatherlink.com 1.10,2013-02-18 06:07:00,
2013-02-18 00:22:00,35.7,27.0,29.65,SE,141,9.0,17.0,72,0.00,,,0.00,weatherlink.com 1.10,2013-02-18 06:22:00,
2013-02-18 00:37:00,35.7,27.0,29.64,SE,142,11.0,13.0,72,0.00,,,0.00,weatherlink.com 1.10,2013-02-18 06:37:00,
2013-02-18 00:52:00,35.4,28.0,29.64,SE,146,7.0,12.0,74,0.00,,,0.00,weatherlink.com 1.10,2013-02-18 06:52:00,
2013-02-18 01:07:00,35.3,28.0,29.63,SE,146,4.0,9.0,74,0.00,,,0.00,weatherlink.com 1.10,2013-02-18 07:07:00,
2013-02-18 01:22:00,35.0,28.0,29.62,SE,145,4.0,9.0,75,0.00,,,0.00,weatherlink.com 1.10,2013-02-18 07:22:00,
2013-02-18 01:37:00,34.8,28.0,29.62,SE,145,6.0,9.0,76,0.00,,,0.00,weatherlink.com 1.10,2013-02-18 07:37:00,
2013-02-18 01:52:00,35.0,28.0,29.61,SE,145,4.0,8.0,76,0.00,,,0.00,weatherlink.com 1.10,2013-02-18 07:52:00,
2013-02-18 02:07:00,35.0,28.0,29.61,SE,145,4.0,8.0,76,0.00,,,0.00,weatherlink.com 1.10,2013-02-18 08:07:00,
2013-02-18 02:22:00,35.1,28.0,29.60,SE,146,0.0,7.0,76,0.00,,,0.00,weatherlink.com 1.10,2013-02-18 08:22:00,
2013-02-18 02:37:00,34.7,28.0,29.60,SE,146,0.0,7.0,77,0.00,,,0.00,weatherlink.com 1.10,2013-02-18 08:37:00,
2013-02-18 02:52:00,34.3,28.0,29.59,SE,146,0.0,6.0,77,0.00,,,0.00,weatherlink.com 1.10,2013-02-18 08:52:00,
2013-02-18 03:07:00,33.9,28.0,29.59,SE,146,0.0,0.0,78,0.00,,,0.00,weatherlink.com 1.10,2013-02-18 09:07:00,
2013-02-18 03:22:00,33.7,28.0,29.58,SE,146,0.0,4.0,78,0.00,,,0.00,weatherlink.com 1.10,2013-02-18 09:22:00,
2013-02-18 03:38:00,33.6,28.0,29.58,SE,146,0.0,0.0,79,0.00,,,0.00,weatherlink.com 1.10,2013-02-18 09:38:00,
2013-02-18 03:52:00,33.5,28.0,29.58,SE,146,0.0,0.0,79,0.00,,,0.00,weatherlink.com 1.10,2013-02-18 09:52:00,
2013-02-18 04:07:00,33.3,27.0,29.58,SE,146,0.0,0.0,79,0.00,,,0.00,weatherlink.com 1.10,2013-02-18 10:07:00,
2013-02-18 04:22:00,33.2,28.0,29.58,SE,146,0.0,0.0,80,0.00,,,0.00,weatherlink.com 1.10,2013-02-18 10:22:00,
2013-02-18 04:37:00,33.3,28.0,29.57,SE,146,0.0,3.0,81,0.00,,,0.00,weatherlink.com 1.10,2013-02-18 10:37:00,
2013-02-18 04:52:00,32.8,27.0,29.59,SSE,157,4.0,7.0,80,0.00,,,0.00,weatherlink.com 1.10,2013-02-18 10:52:00,
2013-02-18 05:07:00,31.8,26.0,29.58,SSE,157,0.0,0.0,80,0.00,,,0.00,weatherlink.com 1.10,2013-02-18 11:07:00,
2013-02-18 05:22:00,31.3,26.0,29.59,SSE,160,5.0,5.0,82,0.00,,,0.00,weatherlink.com 1.10,2013-02-18 11:22:00,
2013-02-18 05:37:00,31.3,27.0,29.59,SSE,165,0.0,0.0,83,0.00,,,0.00,weatherlink.com 1.10,2013-02-18 11:37:00,
2013-02-18 05:52:00,31.3,27.0,29.59,SSE,165,3.0,5.0,83,0.00,,,0.00,weatherlink.com 1.10,2013-02-18 11:52:00,
2013-02-18 06:07:00,31.2,27.0,29.59,SSE,168,2.0,5.0,84,0.00,,,0.00,weatherlink.com 1.10,2013-02-18 12:07:00,
2013-02-18 06:22:00,31.2,27.0,29.58,SSE,168,0.0,0.0,84,0.00,,,0.00,weatherlink.com 1.10,2013-02-18 12:22:00,
2013-02-18 06:37:00,31.3,27.0,29.59,South,169,2.0,5.0,85,0.00,,,0.00,weatherlink.com 1.10,2013-02-18 12:37:00,
2013-02-18 07:07:00,31.6,28.0,29.58,South,170,0.0,0.0,86,0.00,,,0.00,weatherlink.com 1.10,2013-02-18 13:07:00,
2013-02-18 07:23:00,31.9,28.0,29.58,South,170,3.0,4.0,86,0.00,,,0.00,weatherlink.com 1.10,2013-02-18 13:23:00,
2013-02-18 07:37:00,31.9,28.0,29.59,South,170,0.0,4.0,85,0.00,,,0.00,weatherlink.com 1.10,2013-02-18 13:37:00,
2013-02-18 07:52:00,31.8,28.0,29.59,South,181,8.0,8.0,85,0.00,,,0.00,weatherlink.com 1.10,2013-02-18 13:52:00,
2013-02-18 08:07:00,33.1,30.0,29.61,West,271,8.0,11.0,87,0.00,,,0.00,weatherlink.com 1.10,2013-02-18 14:07:00,
2013-02-18 08:23:00,34.2,30.0,29.61,WNW,298,11.0,12.0,85,0.00,,,0.00,weatherlink.com 1.10,2013-02-18 14:23:00,
2013-02-18 08:38:00,34.6,30.0,29.61,NW,307,4.0,15.0,84,0.00,,,0.00,weatherlink.com 1.10,2013-02-18 14:38:00,
2013-02-18 08:53:00,35.2,31.0,29.61,NW,306,9.0,14.0,84,0.00,,,0.00,weatherlink.com 1.10,2013-02-18 14:53:00,
2013-02-18 09:08:00,36.0,32.0,29.61,NW,309,5.0,15.0,84,0.00,,,0.00,weatherlink.com 1.10,2013-02-18 15:08:00,
2013-02-18 09:23:00,37.3,33.0,29.61,NW,312,6.0,18.0,84,0.00,,,0.00,weatherlink.com 1.10,2013-02-18 15:23:00,
2013-02-18 09:38:00,38.5,33.0,29.61,WNW,296,10.0,21.0,82,0.00,,,0.00,weatherlink.com 1.10,2013-02-18 15:38:00,
2013-02-18 09:53:00,40.0,34.0,29.61,NW,321,12.0,18.0,79,0.00,,,0.00,weatherlink.com 1.10,2013-02-18 15:53:00,
2013-02-18 10:08:00,40.7,34.0,29.62,NW,323,14.0,18.0,78,0.00,,,0.00,weatherlink.com 1.10,2013-02-18 16:08:00,
2013-02-18 10:23:00,41.2,34.0,29.64,NW,311,10.0,21.0,76,0.00,,,0.00,weatherlink.com 1.10,2013-02-18 16:23:00,
2013-02-18 10:38:00,41.5,33.0,29.63,NW,319,16.0,22.0,73,0.00,,,0.00,weatherlink.com 1.10,2013-02-18 16:38:00,
2013-02-18 10:53:00,41.7,34.0,29.63,WNW,291,8.0,21.0,73,0.00,,,0.00,weatherlink.com 1.10,2013-02-18 16:53:00,
2013-02-18 11:08:00,41.1,33.0,29.65,NW,324,16.0,23.0,73,0.00,,,0.00,weatherlink.com 1.10,2013-02-18 17:08:00,
2013-02-18 11:23:00,40.1,33.0,29.66,NW,315,13.0,19.0,75,0.00,,,0.00,weatherlink.com 1.10,2013-02-18 17:23:00,
2013-02-18 11:38:00,39.7,33.0,29.67,NW,319,11.0,23.0,76,0.00,,,0.00,weatherlink.com 1.10,2013-02-18 17:38:00,
2013-02-18 11:53:00,38.9,32.0,29.67,NW,313,15.0,23.0,77,0.00,,,0.00,weatherlink.com 1.10,2013-02-18 17:53:00,
2013-02-18 12:08:00,38.8,32.0,29.67,NW,311,16.0,25.0,77,0.00,,,0.00,weatherlink.com 1.10,2013-02-18 18:08:00,
2013-02-18 12:23:00,38.8,33.0,29.67,NW,305,12.0,20.0,78,0.00,,,0.00,weatherlink.com 1.10,2013-02-18 18:23:00,
2013-02-18 12:38:00,38.8,33.0,29.67,NW,307,4.0,16.0,78,0.00,,,0.00,weatherlink.com 1.10,2013-02-18 18:38:00,
2013-02-18 13:08:00,38.0,31.0,29.67,West,269,7.0,25.0,77,0.00,,,0.00,weatherlink.com 1.10,2013-02-18 19:08:00,
2013-02-18 13:23:00,37.0,30.0,29.67,WNW,292,15.0,26.0,77,0.00,,,0.00,weatherlink.com 1.10,2013-02-18 19:23:00,
2013-02-18 13:38:00,34.9,28.0,29.68,NW,313,23.0,31.0,75,0.00,,,0.00,weatherlink.com 1.10,2013-02-18 19:38:00,
2013-02-18 13:53:00,32.5,26.0,29.69,WNW,294,11.0,36.0,78,0.00,,,0.00,weatherlink.com 1.10,2013-02-18 19:53:00,
2013-02-18 14:08:00,30.9,27.0,29.70,WNW,303,22.0,27.0,86,0.00,,,0.00,weatherlink.com 1.10,2013-02-18 20:08:00,
2013-02-18 14:23:00,29.7,27.0,29.72,WNW,291,6.0,30.0,88,0.00,,,0.00,weatherlink.com 1.10,2013-02-18 20:23:00,
2013-02-18 14:53:00,28.5,26.0,29.73,WNW,302,5.0,28.0,90,0.00,,,0.00,weatherlink.com 1.10,2013-02-18 20:53:00,
2013-02-18 15:08:00,28.2,25.0,29.73,NW,308,16.0,28.0,89,0.00,,,0.00,weatherlink.com 1.10,2013-02-18 21:08:00,
2013-02-18 15:23:00,28.8,25.0,29.73,NW,314,17.0,32.0,84,0.00,,,0.00,weatherlink.com 1.10,2013-02-18 21:23:00,
2013-02-18 15:38:00,29.0,23.0,29.73,WNW,293,10.0,36.0,78,0.00,,,0.00,weatherlink.com 1.10,2013-02-18 21:38:00,
2013-02-18 15:53:00,29.2,22.0,29.74,NW,312,16.0,34.0,74,0.00,,,0.00,weatherlink.com 1.10,2013-02-18 21:53:00,
2013-02-18 16:08:00,28.7,22.0,29.74,NW,304,26.0,36.0,75,0.00,,,0.00,weatherlink.com 1.10,2013-02-18 22:08:00,
2013-02-18 16:23:00,28.2,21.0,29.75,NW,314,14.0,29.0,73,0.00,,,0.00,weatherlink.com 1.10,2013-02-18 22:23:00,
2013-02-18 16:39:00,28.2,21.0,29.76,WNW,286,11.0,32.0,74,0.00,,,0.00,weatherlink.com 1.10,2013-02-18 22:39:00,
2013-02-18 16:54:00,28.2,20.0,29.77,NW,313,5.0,27.0,72,0.00,,,0.00,weatherlink.com 1.10,2013-02-18 22:54:00,
2013-02-18 17:09:00,28.2,20.0,29.78,WNW,293,26.0,38.0,72,0.00,,,0.00,weatherlink.com 1.10,2013-02-18 23:09:00,
2013-02-18 17:24:00,27.6,19.0,29.79,West,279,15.0,30.0,71,0.00,,,0.00,weatherlink.com 1.10,2013-02-18 23:24:00,
2013-02-18 17:39:00,27.0,19.0,29.81,NW,305,12.0,29.0,71,0.00,,,0.00,weatherlink.com 1.10,2013-02-18 23:39:00,
2013-02-18 17:54:00,26.5,18.0,29.82,WNW,284,11.0,29.0,70,0.00,,,0.00,weatherlink.com 1.10,2013-02-18 23:54:00,
2013-02-18 18:09:00,25.8,18.0,29.84,WNW,290,4.0,29.0,71,0.00,,,0.00,weatherlink.com 1.10,2013-02-19 00:09:00,
2013-02-18 18:24:00,25.3,17.0,29.84,WNW,300,9.0,35.0,70,0.00,,,0.00,weatherlink.com 1.10,2013-02-19 00:24:00,
2013-02-18 18:39:00,24.5,16.0,29.86,WNW,288,10.0,25.0,70,0.00,,,0.00,weatherlink.com 1.10,2013-02-19 00:39:00,
2013-02-18 18:54:00,24.2,16.0,29.86,NW,313,11.0,32.0,71,0.00,,,0.00,weatherlink.com 1.10,2013-02-19 00:54:00,
2013-02-18 19:09:00,23.6,14.0,29.87,WNW,302,11.0,31.0,68,0.00,,,0.00,weatherlink.com 1.10,2013-02-19 01:09:00,
2013-02-18 19:24:00,22.9,14.0,29.88,WNW,297,10.0,26.0,69,0.00,,,0.00,weatherlink.com 1.10,2013-02-19 01:24:00,
2013-02-18 19:39:00,22.5,14.0,29.89,WNW,302,5.0,19.0,71,0.00,,,0.00,weatherlink.com 1.10,2013-02-19 01:39:00,
2013-02-18 19:54:00,22.4,14.0,29.89,WNW,297,11.0,26.0,70,0.00,,,0.00,weatherlink.com 1.10,2013-02-19 01:54:00,
2013-02-18 20:09:00,21.8,12.0,29.90,WNW,297,19.0,38.0,67,0.00,,,0.00,weatherlink.com 1.10,2013-02-19 02:09:00,
2013-02-18 20:24:00,21.0,12.0,29.91,NW,312,18.0,29.0,69,0.00,,,0.00,weatherlink.com 1.10,2013-02-19 02:24:00,
2013-02-18 20:39:00,20.6,13.0,29.91,WNW,300,11.0,23.0,71,0.00,,,0.00,weatherlink.com 1.10,2013-02-19 02:39:00,
2013-02-18 20:54:00,20.4,13.0,29.92,West,279,3.0,24.0,72,0.00,,,0.00,weatherlink.com 1.10,2013-02-19 02:54:00,
2013-02-18 21:09:00,20.0,12.0,29.93,NW,313,20.0,32.0,70,0.00,,,0.00,weatherlink.com 1.10,2013-02-19 03:09:00,
2013-02-18 21:24:00,19.5,11.0,29.93,WNW,291,11.0,25.0,70,0.00,,,0.00,weatherlink.com 1.10,2013-02-19 03:24:00,
2013-02-18 21:40:00,19.1,11.0,29.94,NW,311,12.0,27.0,71,0.00,,,0.00,weatherlink.com 1.10,2013-02-19 03:40:00,
2013-02-18 21:55:00,18.9,12.0,29.94,West,269,27.0,37.0,73,0.00,,,0.00,weatherlink.com 1.10,2013-02-19 03:55:00,
2013-02-18 22:10:00,18.2,11.0,29.95,WNW,287,17.0,34.0,72,0.00,,,0.00,weatherlink.com 1.10,2013-02-19 04:10:00,
2013-02-18 22:25:00,17.2,9.0,29.95,West,275,23.0,28.0,71,0.00,,,0.00,weatherlink.com 1.10,2013-02-19 04:25:00,
2013-02-18 22:40:00,16.7,9.0,29.95,West,279,4.0,21.0,72,0.00,,,0.00,weatherlink.com 1.10,2013-02-19 04:40:00,
2013-02-18 22:55:00,16.5,10.0,29.95,West,274,4.0,29.0,74,0.00,,,0.00,weatherlink.com 1.10,2013-02-19 04:55:00,
2013-02-18 23:10:00,16.4,9.0,29.95,WNW,286,13.0,26.0,74,0.00,,,0.00,weatherlink.com 1.10,2013-02-19 05:10:00,
2013-02-18 23:25:00,16.4,9.0,29.96,WNW,286,12.0,25.0,74,0.00,,,0.00,weatherlink.com 1.10,2013-02-19 05:25:00,
2013-02-18 23:40:00,16.4,10.0,29.97,WNW,292,15.0,26.0,75,0.00,,,0.00,weatherlink.com 1.10,2013-02-19 05:40:00,
2013-02-18 23:55:00,16.4,10.0,29.98,WNW,288,8.0,29.0,75,0.00,,,0.00,weatherlink.com 1.10,2013-02-19 05:55:00,